[[[{"header":{"parameterUnit":"kt","parameterCategory":2,"dx":1,"dy":1,"la1":30.253999710083008,"la2":30.299108505249023,"lo1":-89.0895004272461,"lo2":-89.04439544677734,"nx":28,"ny":28,"refTime":"2022-10-08T21:00:00:Z","depth":0,"parameterNumber":1,"parameterNumberName":"U-component_of_WINDS"},"data":[-2.2026,-2.2062,-2.2042,-2.2074,-2.2061,-2.2079,-2.2079,-2.2077,-2.2071,-2.209,-2.2098,-2.2081,-2.2067,-2.2072,-2.2079,-2.2072,-2.2077,-2.2104,-2.2091,-2.1988,-2.1972,-2.1958,-2.1948,-2.2105,-2.2105,-2.2202,-2.2203,-2.2204,-2.1949,-2.1937,-2.1948,-2.1945,-2.1954,-2.1915,-2.1909,-2.192,-2.1938,-2.193,-2.1937,-2.1953,-2.1963,-2.1939,-2.1946,-2.1963,-2.1946,-2.1966,-2.1966,-2.1965,-2.1853,-2.1843,-2.198,-2.198,-2.198,-2.198,-2.198,-2.198,-2.1804,-2.1827,-2.1814,-2.1825,-2.1818,-2.1817,-2.1835,-2.1814,-2.1825,-2.183,-2.1803,-2.1824,-2.1812,-2.1811,-2.1806,-2.1821,-2.1795,-2.1812,-2.1817,-2.1822,-2.183,-2.1695,-2.1821,-2.1821,-2.182,-2.182,-2.182,0,-2.1693,-2.1674,-2.1684,-2.1687,-2.1695,-2.1696,-2.1694,-2.1704,-2.1659,-2.167,-2.1685,-2.169,-2.17,-2.1712,-2.1714,-2.1705,-2.1669,-2.1662,-2.1674,-2.1688,-2.17,-2.1695,-2.1515,-2.166,-2.1658,-2.1657,-2.1656,-2.1656,-2.1547,-2.1576,-2.1552,-2.1562,-2.1556,-2.1572,-2.1577,-2.1535,-2.1543,-2.1535,-2.1557,-2.1568,-2.1575,-2.1602,-2.1579,-2.1587,-2.157,-2.1627,-2.1571,-2.1582,-2.1573,-2.1572,-2.1575,-2.164,-2.1642,-2.1644,-2.1645,0,-2.1466,-2.1434,-2.1473,-2.1447,-2.1441,-2.1474,-2.1452,-2.1473,-2.1451,-2.1478,-2.1481,-2.1448,-2.1463,-2.143,-2.1442,-2.1425,-2.1478,-2.146,-2.1481,-2.1477,-2.1526,-2.1523,-2.1688,-2.1708,-2.1543,-2.1545,-2.1546,0,-2.133,-2.137,-2.1319,-2.1344,-2.1386,-2.1343,-2.1387,-2.1373,-2.1363,-2.1383,-2.1335,-2.1355,-2.1311,-2.1326,-2.1301,-2.1338,-2.134,-2.133,-2.1323,-2.1336,-2.1337,-2.1342,-2.1335,-2.1305,-2.1304,-2.1303,-2.1303,0,-2.121,-2.123,-2.1269,-2.1268,-2.1246,-2.1265,-2.1257,-2.1246,-2.1252,-2.1255,-2.1259,-2.1266,-2.127,-2.1276,-2.1244,-2.1207,-2.1289,-2.1232,-2.1278,-2.1279,-2.1301,-2.13,-2.1453,-2.1302,-2.1302,-2.1301,-2.1301,0,-2.1096,-2.11,-2.1161,-2.1141,-2.1148,-2.1174,-2.1178,-2.1193,-2.1185,-2.117,-2.1172,-2.1138,-2.1167,-2.1113,-2.1154,-2.1115,-2.1122,-2.1114,-2.1117,-2.112,-2.1061,-2.1154,-2.13,-2.1316,-2.1119,-2.1118,-2.1116,0,-2.0968,-2.1022,-2.0986,-2.1045,-2.1066,-2.1011,-2.1038,-2.1033,-2.1016,-2.1031,-2.1012,-2.103,-2.0983,-2.0984,-2.1008,-2.099,-2.104,-2.0982,-2.1006,-2.1007,-2.1011,-2.1145,-2.1177,-2.1271,-2.1096,-2.1098,-2.11,0,-2.0865,-2.0838,-2.0852,-2.085,-2.0836,-2.0853,-2.0885,-2.0893,-2.0905,-2.0905,-2.0931,-2.0955,-2.092,-2.0923,-2.0896,-2.0923,-2.1005,-2.0883,-2.0882,-2.0907,-2.1083,-2.1113,-2.1129,-2.0981,-2.0983,-2.0985,-2.1084,0,-2.0703,-2.0726,-2.076,-2.0758,-2.0766,-2.0802,-2.0768,-2.078,-2.0753,-2.0735,-2.0773,-2.0762,-2.0771,-2.0781,-2.0755,-2.0827,-2.081,-2.0774,-2.0721,-2.0809,-2.0841,-2.0854,-2.0676,-2.0674,-2.0672,-2.0671,0,0,-2.0589,-2.0622,-2.0583,-2.0613,-2.0617,-2.0561,-2.0602,-2.06,-2.0599,-2.0603,-2.0572,-2.0606,-2.0599,-2.0649,-2.0673,-2.0677,-2.0687,-2.0659,-2.0767,-2.0778,-2.0787,-2.0822,-2.0836,-2.0669,-2.0668,-2.0667,-2.0667,0,-2.0524,-2.0516,-2.0557,-2.0553,-2.0546,-2.0525,-2.0534,-2.0518,-2.0509,-2.0546,-2.05,-2.0519,-2.0548,-2.0546,-2.0549,-2.065,-2.0616,-2.0656,-2.0722,-2.0753,-2.0766,-2.0777,-2.0814,-2.0827,-2.0663,-2.0664,-2.0664,0,-2.0418,-2.0405,-2.0421,-2.0429,-2.0425,-2.0448,-2.0383,-2.041,-2.0427,-2.0366,-2.0404,-2.0394,-2.0389,-2.0441,-2.0463,-2.0436,-2.0554,-2.0511,-2.0519,-2.0522,-2.055,-2.0566,-2.0579,-2.0399,-2.0399,-2.0398,0,0,-2.0366,-2.0387,-2.0362,-2.0413,-2.0413,-2.0383,-2.0392,-2.0366,-2.0363,-2.0362,-2.0348,-2.0347,-2.0362,-2.0374,-2.0388,-2.0449,-2.0445,-2.048,-2.0492,-2.0502,-2.0511,-2.0542,-2.0557,-2.0395,-2.0395,-2.0395,0,0,-2.0342,-2.0314,-2.0287,-2.0342,-2.034,-2.032,-2.0352,-2.0319,-2.0328,-2.0321,-2.028,-2.0278,-2.0325,-2.0317,-2.0281,-2.0369,-2.0316,-2.0324,-2.0372,-2.0388,-2.04,-2.0402,-2.0215,0,0,0,0,0,-2.0258,-2.0317,-2.0293,-2.0297,-2.0309,-2.0332,-2.0334,-2.0301,-2.0264,-2.029,-2.0274,-2.0236,-2.0289,-2.0256,-2.0261,-2.0303,-2.0357,-2.0364,-2.037,-2.0446,-2.0462,-2.0476,0,0,0,0,0,0,-2.0259,-2.0265,-2.0291,-2.0274,-2.0276,-2.033,-2.0261,-2.0253,-2.0261,-2.0253,-2.0241,-2.0236,-2.0209,-2.0251,-2.0257,-2.0297,-2.0213,-2.0359,-2.0365,-2.037,-2.0452,-2.0465,-2.0476,0,0,0,0,0,-2.026,-2.0265,-2.0291,-2.0273,-2.0275,-2.0245,-2.0258,-2.0252,-2.0257,-2.0232,-2.0226,-2.0231,-2.0211,-2.0213,-2.0254,-2.0295,-2.021,-2.0212,-2.0363,-2.0368,-2.0372,-2.0458,0,0,0,0,0,0,-2.0261,-2.0259,-2.0291,-2.029,-2.0248,-2.0241,-2.0239,-2.025,-2.0234,-2.0229,-2.022,-2.0214,-2.0213,-2.0214,-2.0216,-2.0297,-2.0207,-2.0209,-2.021,-2.0367,-2.037,-2.0373,0,0,0,0,0,0,-2.0256,-2.0259,-2.029,-2.0261,-2.0257,-2.0238,-2.0236,-2.0267,-2.0235,-2.0224,-2.0218,-2.0218,-2.0211,-2.0216,-2.0217,-2.0266,-2.0204,-2.0206,-2.0208,-2.0208,-2.037,-2.0372,0,0,0,0,0,0,-2.0257,-2.0259,-2.0261,-2.0258,-2.0254,-2.0244,-2.0265,-2.0278,-2.021,-2.0225,-2.0203,-2.0199,-2.0213,-2.0213,-2.0218,-2.0266,-2.0266,-2.0204,-2.0206,-2.0207,-2.0207,0,0,0,0,0,0,0,-2.0257,-2.0251,-2.0295,-2.0255,-2.0252,-2.0284,-2.0284,-2.0284,-2.0209,-2.0206,-2.0203,-2.0201,-2.0193,-2.0195,-2.0197,-2.0267,0,0,-2.0204,-2.0205,0,0,0,0,0,0,0,0,-2.0249,-2.0251,-2.0294,-2.0294,-2.0294,-2.0284,-2.0284,-2.0284,-2.0208,-2.0206,-2.0204,-2.0202,-2.0193,-2.0195,-2.0197,0,0,0,0,0,0,0,0,0,0,0,0,0,0,0,-2.0294,-2.0294,0,-2.0284,-2.0284,-2.0284,-2.0208,-2.0206,-2.0204,-2.0203,-2.0194,-2.0195,-2.0197,0,0,0,0,0,0,0,0,0,0,0,0,0,0,0,0,0,0,0,0,0,0,0,0,0,0,0,0,0,0,0,0,0,0,0,0,0,0,0,0,0,0,0,0,0,0,0,0,0,0,0,0,0,0,0,0,0,0,0,0,0,0,0,0,0,0,0,0,0]}],[{"header":{"parameterUnit":"kt","parameterCategory":2,"dx":1,"dy":1,"la1":30.253999710083008,"la2":30.299108505249023,"lo1":-89.0895004272461,"lo2":-89.04439544677734,"nx":28,"ny":28,"refTime":"2022-10-08T21:00:00:Z","depth":0,"parameterNumber":2,"parameterNumberName":"V-component_of_WINDS"},"data":[-9.2641,-9.2719,-9.2713,-9.2799,-9.2807,-9.2864,-9.2881,-9.2903,-9.2918,-9.2983,-9.3018,-9.3017,-9.3026,-9.3065,-9.3101,-9.3098,-9.3114,-9.3148,-9.3139,-9.2995,-9.2974,-9.2954,-9.2935,-9.3152,-9.3153,-9.3289,-9.3291,-9.3292,-9.2541,-9.2552,-9.2595,-9.2632,-9.2668,-9.2633,-9.2658,-9.269,-9.274,-9.2758,-9.2792,-9.2846,-9.2887,-9.2884,-9.2921,-9.2955,-9.2938,-9.2966,-9.2962,-9.2963,-9.2809,-9.279,-9.2979,-9.2979,-9.2979,-9.2979,-9.2979,-9.2979,-9.2358,-9.2405,-9.2423,-9.2469,-9.2485,-9.2509,-9.2551,-9.2549,-9.2588,-9.2627,-9.2608,-9.2663,-9.2677,-9.2715,-9.2725,-9.2766,-9.2733,-9.2759,-9.2765,-9.2772,-9.2781,-9.2586,-9.2772,-9.2771,-9.2771,-9.277,-9.277,0,-9.2221,-9.2212,-9.2251,-9.229,-9.2322,-9.235,-9.2373,-9.2399,-9.2371,-9.2405,-9.2452,-9.2476,-9.2525,-9.2566,-9.2597,-9.26,-9.2561,-9.2556,-9.2573,-9.2583,-9.259,-9.2587,-9.2335,-9.2549,-9.2547,-9.2546,-9.2545,-9.2544,-9.2035,-9.2089,-9.2102,-9.2131,-9.2141,-9.2187,-9.2212,-9.2184,-9.2211,-9.2233,-9.2274,-9.2315,-9.2346,-9.242,-9.241,-9.2445,-9.2425,-9.2509,-9.243,-9.2439,-9.2426,-9.2422,-9.2428,-9.2523,-9.2526,-9.2528,-9.253,0,-9.1931,-9.1916,-9.1996,-9.2002,-9.2005,-9.2063,-9.2066,-9.2109,-9.2099,-9.2157,-9.2169,-9.2152,-9.2196,-9.2173,-9.2218,-9.2204,-9.2298,-9.2278,-9.2294,-9.2288,-9.236,-9.2353,-9.2596,-9.2626,-9.2402,-9.2404,-9.2406,0,-9.1764,-9.1836,-9.1809,-9.1856,-9.1935,-9.1903,-9.1981,-9.198,-9.199,-9.2035,-9.1987,-9.203,-9.1993,-9.2032,-9.2012,-9.2084,-9.2092,-9.2085,-9.2078,-9.2088,-9.2089,-9.2099,-9.2088,-9.2061,-9.206,-9.2059,-9.2058,0,-9.1601,-9.1669,-9.1746,-9.1758,-9.1768,-9.1805,-9.181,-9.182,-9.1843,-9.1869,-9.1884,-9.1916,-9.1933,-9.1958,-9.1931,-9.1879,-9.2018,-9.194,-9.2011,-9.2012,-9.204,-9.2039,-9.2262,-9.2056,-9.2056,-9.2056,-9.2055,0,-9.1462,-9.1492,-9.1605,-9.1612,-9.1631,-9.168,-9.171,-9.1747,-9.176,-9.1751,-9.177,-9.1734,-9.1794,-9.1719,-9.1802,-9.1741,-9.1761,-9.176,-9.1764,-9.1766,-9.1682,-9.181,-9.2026,-9.2047,-9.1772,-9.1769,-9.1767,0,-9.128,-9.1389,-9.1362,-9.1469,-9.1515,-9.1459,-9.1513,-9.1525,-9.1517,-9.1554,-9.1543,-9.1584,-9.1523,-9.1532,-9.1576,-9.1566,-9.1644,-9.1555,-9.1606,-9.1608,-9.1604,-9.1804,-9.1841,-9.1982,-9.1736,-9.174,-9.1742,0,-9.1136,-9.1146,-9.1167,-9.1179,-9.119,-9.1228,-9.129,-9.1324,-9.135,-9.1368,-9.1418,-9.1475,-9.1431,-9.1446,-9.1418,-9.1465,-9.159,-9.141,-9.141,-9.1443,-9.1718,-9.1754,-9.1778,-9.1561,-9.1565,-9.1568,-9.1718,0,-9.093,-9.098,-9.1036,-9.1062,-9.1087,-9.1152,-9.1126,-9.1155,-9.1127,-9.1114,-9.1187,-9.1187,-9.1219,-9.1239,-9.1209,-9.1326,-9.1302,-9.1253,-9.1175,-9.1307,-9.1356,-9.1375,-9.1106,-9.1103,-9.1101,-9.1099,0,0,-9.0758,-9.0829,-9.0794,-9.0853,-9.0871,-9.0808,-9.088,-9.089,-9.0911,-9.0925,-9.0882,-9.0961,-9.0962,-9.1053,-9.1092,-9.1104,-9.1122,-9.1075,-9.1245,-9.1261,-9.1276,-9.1329,-9.135,-9.1096,-9.1095,-9.1094,-9.1094,0,-9.0677,-9.0683,-9.0754,-9.0763,-9.0776,-9.0759,-9.0776,-9.0776,-9.077,-9.0841,-9.0785,-9.0824,-9.0887,-9.0896,-9.0908,-9.1065,-9.1019,-9.1077,-9.1171,-9.1225,-9.1244,-9.1261,-9.1317,-9.1337,-9.1089,-9.1089,-9.1089,0,-9.0529,-9.053,-9.0561,-9.0599,-9.0606,-9.0653,-9.0567,-9.062,-9.0654,-9.0577,-9.0647,-9.0643,-9.0651,-9.074,-9.0778,-9.0739,-9.0927,-9.0862,-9.0874,-9.0877,-9.0927,-9.095,-9.0971,-9.07,-9.0699,-9.0698,0,0,-9.0461,-9.0507,-9.0496,-9.0579,-9.0588,-9.0562,-9.0584,-9.0556,-9.0566,-9.057,-9.0562,-9.0573,-9.0608,-9.0633,-9.0664,-9.0766,-9.0764,-9.0815,-9.0834,-9.0849,-9.086,-9.0914,-9.0937,-9.0693,-9.0693,-9.0693,0,0,-9.0427,-9.0418,-9.0387,-9.0481,-9.0494,-9.0486,-9.0537,-9.0498,-9.0524,-9.0512,-9.0466,-9.0466,-9.0548,-9.0545,-9.0487,-9.0635,-9.056,-9.0573,-9.0634,-9.0657,-9.0675,-9.0673,-9.0395,0,0,0,0,0,-9.0329,-9.042,-9.0392,-9.0403,-9.0449,-9.0502,-9.0507,-9.0472,-9.042,-9.0462,-9.0449,-9.0398,-9.0504,-9.0452,-9.0463,-9.0527,-9.0634,-9.0644,-9.0654,-9.0757,-9.0781,-9.0802,0,0,0,0,0,0,-9.0333,-9.0347,-9.0389,-9.0386,-9.0396,-9.0498,-9.0402,-9.0395,-9.0414,-9.0404,-9.0402,-9.0398,-9.0367,-9.0444,-9.0454,-9.0516,-9.0391,-9.0638,-9.0647,-9.0655,-9.0765,-9.0785,-9.0802,0,0,0,0,0,-9.0336,-9.0347,-9.043,-9.0384,-9.0393,-9.0368,-9.0398,-9.0391,-9.0405,-9.0385,-9.0379,-9.0377,-9.037,-9.0376,-9.045,-9.0512,-9.0383,-9.0387,-9.0644,-9.0651,-9.0657,-9.0775,0,0,0,0,0,0,-9.0338,-9.0341,-9.0431,-9.0432,-9.0347,-9.0361,-9.0363,-9.0389,-9.0384,-9.038,-9.0357,-9.0349,-9.0373,-9.0377,-9.0382,-9.0513,-9.0377,-9.0381,-9.0384,-9.0649,-9.0655,-9.066,0,0,0,0,0,0,-9.0334,-9.0342,-9.0431,-9.0386,-9.0381,-9.0356,-9.0357,-9.0413,-9.0385,-9.0356,-9.0349,-9.0353,-9.0364,-9.0378,-9.0382,-9.0471,-9.0372,-9.0376,-9.0379,-9.0381,-9.0654,-9.0658,0,0,0,0,0,0,-9.0337,-9.0344,-9.0385,-9.0382,-9.0377,-9.0388,-9.0404,-9.0452,-9.0349,-9.0358,-9.0338,-9.0333,-9.0367,-9.037,-9.0382,-9.0471,-9.0471,-9.0373,-9.0375,-9.0377,-9.0378,0,0,0,0,0,0,0,-9.0339,-9.0302,-9.0424,-9.0378,-9.0375,-9.0443,-9.0444,-9.0444,-9.0347,-9.0343,-9.0339,-9.0335,-9.035,-9.0354,-9.0359,-9.047,0,0,-9.0372,-9.0374,0,0,0,0,0,0,0,0,-9.0299,-9.0302,-9.0424,-9.0424,-9.0424,-9.0443,-9.0444,-9.0444,-9.0347,-9.0343,-9.034,-9.0337,-9.0351,-9.0354,-9.0358,0,0,0,0,0,0,0,0,0,0,0,0,0,0,0,-9.0424,-9.0424,0,-9.0443,-9.0443,-9.0444,-9.0346,-9.0343,-9.0341,-9.0338,-9.0352,-9.0355,-9.0358,0,0,0,0,0,0,0,0,0,0,0,0,0,0,0,0,0,0,0,0,0,0,0,0,0,0,0,0,0,0,0,0,0,0,0,0,0,0,0,0,0,0,0,0,0,0,0,0,0,0,0,0,0,0,0,0,0,0,0,0,0,0,0,0,0,0,0,0,0]}]]]